Regional Weather Roundup
Issued by NWS

Home | Current Version | Previous Version | Graphics & Text | Print | Product List | Glossary On
Versions: 1 2 3 4 5 6 7 8 9 10 11 12 13 14 15 16 17 18 19 20 21 22 23 24 25 26 27 28 29 30 31 32 33 34 35 36 37 38 39 40 41 42 43 44 45 46 47 48 49 50
000
ASUS45 KSLC 171810
RWRUT

UTAH REGIONAL WEATHER ROUNDUP
NATIONAL WEATHER SERVICE SALT LAKE CITY UT
1200 PM MDT TUE OCT 17 2017

UTZ001>011-023>025-171900-

NORTHERN UTAH

CITY           SKY/WX    TMP DP  RH WIND       PRES   REMARKS
BRIGHAM CITY   SUNNY     55  25  31 CALM      30.27F
DUGWAY         MOSUNNY   57  16  19 NW1       30.28F
HILL AFB       SUNNY     59  20  22 E3        30.28F
LOGAN          SUNNY     53  23  31 CALM      30.26F
OGDEN          SUNNY     60  19  20 S6        30.27F
SALT LAKE CITY PTSUNNY   60  25  26 NW5       30.27F
TOOELE VALLEY  SUNNY     55  32  41 N5        30.28F
WENDOVER         N/A     50  20  30 MISG        N/A
WEST JORDAN    SUNNY     59  27  29 CALM      30.28F

$$

UTZ011>015-024>027-171900-

CENTRAL/NORTHEAST UTAH

CITY           SKY/WX    TMP DP  RH WIND       PRES   REMARKS
PROVO AIRPORT  MOSUNNY   55  31  39 CALM      30.30F
MOAB/CANYONLAN SUNNY     63  11  13 NE6       30.32F
DELTA          SUNNY     55  19  24 CALM      30.29F
PRICE          SUNNY     58   9  14 SE5       30.37F
RICHFIELD      SUNNY     59   7  12 CALM      30.32F
ROOSEVELT      SUNNY     52  19  28 E5        30.38F
VERNAL         SUNNY     56  18  22 CALM      30.35F

$$

UTZ013>016-019>022-027-171900-

SOUTHERN UTAH

CITY           SKY/WX    TMP DP  RH WIND       PRES   REMARKS
BRYCE CANYON   SUNNY     63   2   8 SE10      30.43F
CEDAR CITY     SUNNY     66  13  12 VRB3      30.30F
MILFORD        SUNNY     59  12  15 S12       30.29F
ST GEORGE      CLEAR     64  11  12 VRB3      30.23F
HANKSVILLE     SUNNY     55  12  18 CALM      30.36F
KANAB          SUNNY     72   9   8 CALM      30.33F
BLANDING         N/A     60  11  14 S5        30.44F

$$

REGIONAL REPORTS     COLORADO/ARIZONA

CITY           SKY/WX    TMP DP  RH WIND       PRES   REMARKS
CRAIG, CO      SUNNY     62  10  13 VRB5      30.35F
GRAND JUNCTION SUNNY     59  14  17 S6        30.35F
RIFLE, CO      SUNNY     55  12  18 CALM      30.37F
MONTROSE, CO   SUNNY     57  16  20 W5        30.38F
CORTEZ, CO     SUNNY     64  13  13 SW8       30.36F
COLORADO CITY    N/A     75  14   9 E5        30.31F
PAGE, AZ       SUNNY     61  17  18 N3        30.31F
GRAND CANYON   SUNNY     72  21  14 VRB5      30.38F
KINGMAN, AZ    SUNNY     79  18  10 CALM      30.19F
FLAGSTAFF, AZ  SUNNY     70  21  15 VRB3      30.41F

$$

REGIONAL REPORTS    NEVADA/IDAHO/WYOMING

CITY           SKY/WX    TMP DP  RH WIND       PRES   REMARKS
LAS VEGAS, NV  MOSUNNY   73  18  12 N3        30.15F
ELY, NY        MOSUNNY   67  16  14 W5        30.31F
ELKO, NV       MOSUNNY   52  13  21 CALM      30.27F
POCATELLO, ID  SUNNY     55  30  38 N7        30.23F
BURLEY, ID     MOSUNNY   57  28  33 NE6       30.19F
FORT BRIDGER,    N/A     65   8  10 W13       30.36F
EVANSTON, WY   SUNNY     61   9  12 SW13      30.34F
ROCK SPRINGS,  SUNNY     58   2  10 W8        30.33F
KEMMERER, WY   SUNNY     59   7  12 W9        30.35F

$$



USA.gov is the U.S. government's official web portal to all federal, state and local government web resources and services.